Regional Weather Roundup
Issued by NWS

Home | Current Version | Previous Version | Text Only | Print | Product List | Glossary On
Versions: 1 2 3 4 5 6 7 8 9 10 11 12 13 14 15 16 17 18 19 20 21 22 23 24 25 26 27 28 29 30 31 32 33 34 35 36 37 38 39 40 41 42 43 44 45 46 47 48 49 50
000
ASUS46 KLOX 200312
RWRCA

SOUTHERN CALIFORNIA WEATHER ROUNDUP
NATIONAL WEATHER SERVICE OXNARD CALIFORNIA
800 PM PDT SAT APR 19 2014

NOTE: "FAIR" INDICATES FEW OR NO CLOUDS BELOW 12,000 FEET WITH NO
SIGNIFICANT WEATHER AND/OR OBSTRUCTIONS TO VISIBILITY.

  -  STATIONS PRECEEDED BY AN ASTERISK (*) ARE NOT NWS OR FAA
     STATIONS AND ARE NOT SUBJECT TO NWS AND FAA QUALITY CONTROL.

CAZ041-042-087-200400-
LA AND ORANGE COUNTY COASTAL AREAS


CITY           SKY/WX    TMP DP  RH WIND       PRES   REMARKS
L.A. DOWNTOWN  CLEAR     63  53  70 CALM      29.99R
L.A. AIRPORT   PTCLDY    61  55  81 W8        30.00R
LONG BEACH     CLEAR     63  51  65 NW3       29.99S

CITY           SKY/WX    TMP DP  RH WIND       PRES   REMARKS
AVALON           N/A     61 N/A N/A S1          N/A
FULLERTON      CLEAR     66  53  63 W3        29.99R
*GETTY CENTER    N/A     57  54  88 NE1         N/A
HAWTHORNE      CLEAR     62  53  72 SW3       29.99S
*LEO CARRILLO    N/A     60  52  75 W5          N/A
*LOS ALAMITOS  FAIR      63  54  71 W6        30.00R
*REDONDO BEACH   N/A     60  54  80 W1        29.98R
SANTA ANA      PTCLDY    63  55  75 W5        30.01R
STA MONICA APT CLEAR     63  54  72 SW3       29.99S
TORRANCE       CLEAR     66  54  63 SW8       29.99
*UCLA            N/A     61  54  77 CALM      29.97R

$$

CAZ547-548-048-200400-
LA COUNTY VALLEYS AND INLAND EMPIRE


CITY           SKY/WX    TMP DP  RH WIND       PRES   REMARKS
BURBANK        CLEAR     66  53  63 SE7       29.98S
VAN NUYS       CLEAR     70  48  45 W3        29.98R

CITY           SKY/WX    TMP DP  RH WIND       PRES   REMARKS
CORONA AIRPORT CLEAR     67  52  58 W13G21    29.98R
*CHATSWORTH      N/A     67  53  59 CALM      29.95S
CHINO          PTCLDY    65  52  62 W12       30.00R
*CLAREMONT       N/A     61  48  62 SW3G18      N/A
MARCH AFB      PTCLDY    66  52  59 NW10      30.00R
ONTARIO        PTCLDY    68  52  56 W9        29.99R
*PASADENA        N/A     63  55  77 CALM        N/A
RIVERSIDE      CLEAR     67  52  58 W8        29.99R
SAN BERNARDINO CLEAR     68  48  49 SW9       29.99R
*SAN GABRIEL     N/A     64  51  62 SW6       29.96S
*SAN RAFAEL HI   N/A     62  51  67 CALM        N/A
*SAUGUS          N/A     66  50  57 W6G21       N/A
*WHITEMAN AP   CLEAR     66  54  63 SE7       30.02R
*WOODLAND HILL   N/A     66  50  55 SW2         N/A

$$

CAZ054-055-200400-
LA AND SAN BERNARDINO COUNTY MOUNTAINS


CITY           SKY/WX    TMP DP  RH WIND       PRES   REMARKS
*ACTON           N/A     66  48  51 CALM        N/A
*BIG BEAR AIRP CLEAR     48  39  71 W6        30.18R
*BIG PINES       N/A     49  38  66 CALM        N/A
*CHILAO          N/A     58  44  60 NW5         N/A
MT WILSON NWS    N/A     55  37  50 N2          N/A
SANDBERG       CLEAR     59  42  53 N10       30.12R
*WARM SPRINGS    N/A     61  40  46 W12         N/A

$$

CAZ028-029-059-060-099-200400-
ANTELOPE VALLEY AND SURROUNDING AREAS


CITY           SKY/WX    TMP DP  RH WIND       PRES   REMARKS
LANCASTER      CLEAR     68  44  42 W21       30.00R
PALMDALE       CLEAR     69  45  41 W14       30.02R

CITY           SKY/WX    TMP DP  RH WIND       PRES   REMARKS
29 PALMS       PTCLDY    77  41  27 SW16      29.99R
BARSTOW/DAGGET CLEAR     80  39  23 W22       29.91R
BISHOP         PTCLDY    66  31  27 SE6       29.96R
CHINA LAKE       N/A     76  42  29 SW9       29.90R
EDWARDS AFB    CLEAR     72  43  35 W17G23    29.96R
MOJAVE         FAIR      68  43  40 W28G37    29.97F
NEEDLES        CLEAR     86  36  16 SW10      29.86R
VICTORVILLE    CLEAR     70  41  35 W17G26    30.00R

$$

CAZ039-040-200400-
VENTURA AND SANTA BARBARA COUNTY COAST


CITY           SKY/WX    TMP DP  RH WIND       PRES   REMARKS
CAMARILLO      CLEAR     64  50  60 CALM      29.98S
NWS OXNARD       N/A     61  51  70 CALM      29.98R
OXNARD AIRPORT CLEAR     58  52  80 W6        29.98S
*POINT MUGU    PTCLDY    60  54  80 W6        29.97S
SBA APT/GOLETA CLEAR     60  52  74 CALM      29.96S
*VENTURA         N/A     64  53  67 CALM      30.02S

$$

CAZ044-045-200400-
VENTURA COUNTY VALLEYS


CITY           SKY/WX    TMP DP  RH WIND       PRES   REMARKS
*SIMI VALLEY     N/A     64  52  65 CALM      29.96S
*OJAI            N/A     63  53  69 CALM      29.93R
*FILLMORE        N/A     65  53  65 CALM      29.90R

$$

CAZ053-200400-
VENTURA COUNTY MOUNTAINS


CITY           SKY/WX    TMP DP  RH WIND       PRES   REMARKS
*LOCKWOOD VLY    N/A     54  39  58 MISG        N/A
*ROSE VALLEY     N/A     61  54  77 MISG        N/A

$$

CAZ034-035-036-200400-
CENTRAL COAST AND SANTA YNEZ VALLEY


CITY           SKY/WX    TMP DP  RH WIND       PRES   REMARKS
SAN LUIS OBISP PTCLDY    54  50  86 NW15      30.04R
SANTA MARIA    CLEAR     54  49  83 W14G20    30.05R

CITY           SKY/WX    TMP DP  RH WIND       PRES   REMARKS
*CAL POLY SLO    N/A     57  52  82 W7          N/A
*CAMBRIA         N/A     52  50  92 NE3       29.93F
*LOMPOC        CLEAR     55  46  71 W12G18    30.07S
*PISMO BEACH     N/A     57  50  77 NE3       30.04S
*SANTA YNEZ    FAIR      54  45  71 W13       30.05R

$$

CAZ037-038-051-200400-
SAN LUIS OBISPO COUNTY INTERIOR AND CUYAMA VALLEY


CITY           SKY/WX    TMP DP  RH WIND       PRES   REMARKS
*CUYAMA          N/A     71  36  26 N3        29.87R
PASO ROBLES    CLEAR     66  38  35 NW15      30.03R

$$

CAZ032-033-061-200400-
SOUTHERN DESERTS


CITY           SKY/WX    TMP DP  RH WIND       PRES   REMARKS
BLYTHE         CLEAR     83  44  25 S6        29.87R
IMPERIAL       CLEAR     83  42  23 SE5       29.85R
PALM SPRINGS   CLEAR     84  45  25 SE10      29.89R
THERMAL        CLEAR     77  49  37 S5        29.84R

$$

ELSEWHERE ACROSS THE WESTERN UNITED STATES AND MEXICO


CITY           SKY/WX    TMP DP  RH WIND       PRES   REMARKS
DENVER, CO     CLOUDY    52  46  80 NW8       30.09R
GRAND CANYON,  CLEAR     42  39  89 CALM      30.16R
HONOLULU, HI   PTSUNNY   79  61  53 NE22G28   30.06S
KAHULUI, MAUI  PTSUNNY   77  63  61 NE16G28   30.06R
LAKE TAHOE, CA MOCLDY    50  21  32 SW6       30.17R
LAS VEGAS, NV  PTCLDY    81  31  16 S6        29.86R
MAMMOTH LAKES, FAIR      54  30  40 W3        30.16R
MEXICO CITY, M CLOUDY    68  46  45 N8        30.31R
PHOENIX, AZ    PTCLDY    83  34  17 W5        29.89R
PORTLAND, OR   PTCLDY    53  41  63 SW10      30.16R
RENO, NV       MOCLDY    63  17  17 W8        30.06R
SALT LAKE CITY PTCLDY    61  37  41 CALM      29.97R
SAN DIEGO, CA  MOCLDY    64  55  72 NW5       30.04S
SAN FRANCISCO, CLOUDY    57  54  89 W13G23    30.11F
SAN JOSE, CA   PTCLDY    59  52  77 N8        30.12R
SEATTLE, WA    MOCLDY    48  43  82 SW15G24   30.07R
TIJUANA, MEX   PTCLDY    61  52  72 W10       30.04R

$$

STATION/POSITION TIME  TEMP    WIND        PRES    VSBY  WAVE
                       AIR SEA DIR/SP/G                  HT/PER
                 (UTC) (F)     (DEG/KT/KT) (MB)    (MI)  (FT/S)
POINT ARGUELLO B NOT AVBL
WEST SANTA BARBA 0300   55 55  320/ 23/ 27 1015.8R         7/ 7
POINT CONCEPTION NOT AVBL
EAST SANTA BARBA NOT AVBL
SANTA MONICA BAY 0300   60 61  270/  4/  6 1015.1S         4/15



USA.gov is the U.S. government's official web portal to all federal, state and local government web resources and services.